Weather History for Phnom Penh, Cambodia

Change the Weather History Date:

Friday, August 23, 2013

  Actual Average Record
Temperature  
Mean Temperature 83 °F -  
Max Temperature 89 °F 86 °F 95 °F (2011)
Min Temperature 77 °F 76 °F 75 °F (2006)
Cooling Degree Days 18    
Growing Degree Days 33 (Base 50)    
Moisture  
Dew Point 73 °F    
Average Humidity 72    
Maximum Humidity 89    
Minimum Humidity 55    
Precipitation  
Precipitation 0.00 in - - ()
Sea Level Pressure  
Sea Level Pressure 29.72 in    
Wind  
Wind Speed 8 mph ()    
Max Wind Speed 18 mph    
Max Gust Speed -    
Visibility 6.0 miles    
Events Rain    
Averages and records for this station are not official NWS values.
T = Trace of Precipitation, MM = Missing Value Source: Averaged Metar Reports

Daily Weather History Graph

Daily Weather History Graph

Search for Another Location

Airport:

Trip Planner

Search our weather history database for the weather conditions in past years. The results will help you decide how hot, cold, wet, or windy it might be!

Date:

Astronomy

Aug. 23, 2013 Rise Set
Actual Time 5:50 AM ICT 6:16 PM ICT
Civil Twilight 5:28 AM ICT 6:37 PM ICT
Nautical Twilight 5:03 AM ICT 7:02 PM ICT
Astronomical Twilight 4:38 AM ICT 7:28 PM ICT
Moon 7:56 PM ICT (8/23) 7:35 AM ICT (8/23)
Length of Visible Light 13h 08m
Length of Day
12h 25m
Waning Gibbous, 94% of the Moon is Illuminated
Aug 23
Waning Gibbous
Aug 28
Last Quarter
Sep 5
New
Sep 13
First Quarter
Sep 19
Full

Hourly Weather History & Observations

Time (ICT) Temp. Heat Index Dew Point Humidity Pressure Visibility Wind Dir Wind Speed Gust Speed Precip Events Conditions
12:00 AM 82.4 °F 88.2 °F 73.4 °F 74% 29.74 in 6.2 mi West 5.8 mph - N/A   Scattered Clouds
12:30 AM 82.4 °F 88.2 °F 73.4 °F 74% 29.74 in 6.2 mi SSW 4.6 mph - N/A   Scattered Clouds
6:00 AM 77.0 °F - 73.4 °F 89% 29.71 in 6.2 mi SSW 5.8 mph - N/A   Scattered Clouds
6:30 AM 77.0 °F - 73.4 °F 89% 29.71 in 6.2 mi SSW 5.8 mph - N/A   Mostly Cloudy
7:00 AM 78.8 °F - 73.4 °F 83% 29.71 in 6.2 mi South 2.3 mph - N/A   Scattered Clouds
7:30 AM 78.8 °F - 73.4 °F 83% 29.74 in 6.2 mi South 3.5 mph - N/A   Scattered Clouds
8:00 AM - - - N/A% - 6.2 mi SW 5.8 mph - N/A   Scattered Clouds
8:30 AM 82.4 °F 89.5 °F 75.2 °F 79% 29.74 in 6.2 mi SSW 5.8 mph - N/A   Mostly Cloudy
9:00 AM 82.4 °F 88.2 °F 73.4 °F 74% 29.74 in 6.2 mi SSW 9.2 mph - N/A   Mostly Cloudy
9:30 AM 84.2 °F 90.9 °F 73.4 °F 70% 29.74 in 6.2 mi SW 8.1 mph - N/A   Mostly Cloudy
10:00 AM 86.0 °F 91.8 °F 71.6 °F 62% 29.77 in 6.2 mi WSW 17.3 mph - N/A   Mostly Cloudy
10:30 AM 86.0 °F 93.4 °F 73.4 °F 66% 29.77 in 6.2 mi WSW 17.3 mph - N/A   Mostly Cloudy
11:00 AM 86.0 °F 93.4 °F 73.4 °F 66% 29.77 in 6.2 mi WSW 12.7 mph - N/A   Mostly Cloudy
11:30 AM 86.0 °F 93.4 °F 73.4 °F 66% 29.77 in 6.2 mi SSW 9.2 mph - N/A   Scattered Clouds
12:00 PM 87.8 °F 95.6 °F 73.4 °F 62% 29.74 in 6.2 mi WSW 10.4 mph - N/A   Scattered Clouds
12:30 PM 86.0 °F 91.8 °F 71.6 °F 62% 29.74 in 6.2 mi West 12.7 mph - N/A   Mostly Cloudy
1:00 PM 87.8 °F 95.6 °F 73.4 °F 62% 29.71 in 6.2 mi West 11.5 mph - N/A   Mostly Cloudy
1:30 PM 87.8 °F 93.8 °F 71.6 °F 58% 29.71 in 6.2 mi West 13.8 mph - N/A   Mostly Cloudy
2:00 PM 86.0 °F 91.8 °F 71.6 °F 62% 29.71 in 6.2 mi West 12.7 mph - N/A   Mostly Cloudy
2:30 PM 86.0 °F 93.4 °F 73.4 °F 66% 29.71 in 6.2 mi West 9.2 mph - N/A   Mostly Cloudy
3:00 PM 87.8 °F 93.8 °F 71.6 °F 58% 29.68 in 6.2 mi WSW 12.7 mph - N/A   Partly Cloudy
3:30 PM 89.6 °F 96.2 °F 71.6 °F 55% 29.68 in 5.6 mi WSW 17.3 mph - N/A Rain Rain
4:00 PM 82.4 °F 88.2 °F 73.4 °F 74% 29.65 in 6.2 mi SW 13.8 mph - N/A   Scattered Clouds
4:30 PM 84.2 °F 90.9 °F 73.4 °F 70% 29.65 in 6.2 mi WSW 11.5 mph - N/A   Scattered Clouds
5:00 PM 84.2 °F 90.9 °F 73.4 °F 70% 29.68 in 6.2 mi SW 12.7 mph - N/A   Scattered Clouds
5:30 PM 84.2 °F 89.6 °F 71.6 °F 66% 29.68 in 5.6 mi WSW 18.4 mph - N/A Rain Light Rain
6:00 PM 80.6 °F 85.4 °F 73.4 °F 79% 29.68 in 5.6 mi WSW 12.7 mph - N/A Rain Rain
6:30 PM 80.6 °F 85.4 °F 73.4 °F 79% 29.68 in 5.6 mi SW 11.5 mph - N/A   Scattered Clouds
7:00 PM 80.6 °F 85.4 °F 73.4 °F 79% 29.71 in 5.6 mi SW 6.9 mph - N/A   Scattered Clouds
7:30 PM 80.6 °F 84.6 °F 71.6 °F 74% 29.71 in 5.6 mi SW 10.4 mph - N/A   Scattered Clouds
8:00 PM 80.6 °F 84.6 °F 71.6 °F 74% 29.71 in 5.6 mi SW 9.2 mph - N/A   Scattered Clouds
8:30 PM 80.6 °F 85.4 °F 73.4 °F 79% 29.74 in 5.6 mi SW 6.9 mph - N/A   Scattered Clouds
9:00 PM 82.4 °F 88.2 °F 73.4 °F 74% 29.74 in 5.6 mi SW 11.5 mph - N/A   Scattered Clouds
9:30 PM 80.6 °F 85.4 °F 73.4 °F 79% 29.74 in 5.6 mi SW 8.1 mph - N/A   Scattered Clouds
10:00 PM 80.6 °F 85.4 °F 73.4 °F 79% 29.74 in 5.6 mi SSW 5.8 mph - N/A   Scattered Clouds
10:30 PM 80.6 °F 85.4 °F 73.4 °F 79% 29.74 in 5.6 mi SSW 5.8 mph - N/A   Scattered Clouds
11:00 PM 80.6 °F 84.6 °F 71.6 °F 74% 29.74 in 5.6 mi SSW 6.9 mph - N/A   Scattered Clouds
11:30 PM 80.6 °F 84.6 °F 71.6 °F 74% 29.74 in 5.6 mi SSW 6.9 mph - N/A   Scattered Clouds